TimeMST,TemperatureF,Dew PointF,Humidity,Sea Level PressureIn,VisibilityMPH,Wind Direction,Wind SpeedMPH,Gust SpeedMPH,PrecipitationIn,Events,Conditions,WindDirDegrees,DateUTC
12:56 AM,48.9,37.0,64,29.94,10.0,West,25.3,34.5,N/A,,Clear,260,2012-11-04 06:56:00
1:56 AM,48.0,37.0,66,29.97,10.0,WSW,21.9,27.6,N/A,,Clear,250,2012-11-04 07:56:00
1:56 AM,48.0,37.0,66,29.99,10.0,West,25.3,-,N/A,,Partly Cloudy,260,2012-11-04 08:56:00
2:56 AM,48.0,37.9,68,30.03,10.0,West,21.9,28.8,N/A,,Partly Cloudy,280,2012-11-04 09:56:00
3:56 AM,45.0,37.0,74,30.07,10.0,WNW,12.7,-,N/A,,Clear,290,2012-11-04 10:56:00
4:56 AM,44.1,37.0,76,30.11,10.0,WNW,10.4,-,N/A,,Scattered Clouds,290,2012-11-04 11:56:00
5:56 AM,39.0,34.0,82,30.15,10.0,WNW,5.8,-,N/A,,Scattered Clouds,290,2012-11-04 12:56:00
6:56 AM,42.1,36.0,79,30.18,10.0,West,4.6,-,N/A,,Overcast,270,2012-11-04 13:56:00
7:56 AM,43.0,36.0,76,30.21,10.0,Calm,Calm,-,N/A,,Overcast,0,2012-11-04 14:56:00
8:56 AM,45.0,37.0,74,30.22,10.0,North,3.5,-,N/A,,Mostly Cloudy,350,2012-11-04 15:56:00
9:56 AM,48.9,35.1,59,30.22,10.0,North,3.5,-,N/A,,Clear,360,2012-11-04 16:56:00
10:56 AM,51.1,36.0,56,30.22,10.0,Calm,Calm,-,N/A,,Clear,0,2012-11-04 17:56:00
11:56 AM,55.0,36.0,49,30.20,10.0,WSW,8.1,-,N/A,,Clear,250,2012-11-04 18:56:00
12:56 PM,59.0,34.0,39,30.16,10.0,WSW,13.8,21.9,N/A,,Scattered Clouds,250,2012-11-04 19:56:00
1:56 PM,59.0,35.1,41,30.15,10.0,SW,21.9,26.5,N/A,,Scattered Clouds,230,2012-11-04 20:56:00
2:56 PM,55.9,36.0,47,30.16,10.0,WSW,17.3,27.6,N/A,,Clear,250,2012-11-04 21:56:00
3:56 PM,53.1,37.0,55,30.19,10.0,WSW,18.4,-,N/A,,Clear,250,2012-11-04 22:56:00
4:56 PM,50.0,37.9,63,30.19,10.0,WSW,13.8,-,N/A,,Clear,250,2012-11-04 23:56:00
5:56 PM,50.0,37.9,63,30.19,10.0,WSW,12.7,-,N/A,,Clear,250,2012-11-05 00:56:00
6:56 PM,51.1,39.0,63,30.17,10.0,West,17.3,20.7,N/A,,Clear,260,2012-11-05 01:56:00
7:56 PM,52.0,39.0,61,30.15,10.0,WSW,18.4,-,N/A,,Clear,240,2012-11-05 02:56:00
8:56 PM,53.1,39.0,59,30.15,10.0,WSW,20.7,27.6,N/A,,Clear,250,2012-11-05 03:56:00
9:56 PM,55.0,39.9,57,30.10,10.0,WSW,35.7,43.7,N/A,,Clear,250,2012-11-05 04:56:00
10:56 PM,54.0,39.9,59,30.09,10.0,WSW,27.6,35.7,N/A,,Clear,250,2012-11-05 05:56:00